Volver al catálogo

FENGYUN 1C DEB

ActivoPO
NORAD 30110·DEBRIS·🇨🇳 China

Lanzado May 10, 1999 desde Taiyuan Satellite Launch Center

Loading…

Próximos Pases (próximas 24 horas)

TLE

ActualizadoSource: Space-Track

Época: Sep 14, 2026, 17:27 UTC

1 30110U 99025RP  26257.72743877  .00000083  00000-0  13807-3 0  9990
2 30110  98.9114 345.5491 0267492   2.1592 358.0639 13.56349431972561

Sigue FENGYUN 1C DEB en tiempo real con AllMySat

Download on the App Store